Regional Weather Roundup
Issued by NWS Newport/Morehead, NC

Home | Current Version | Previous Version | Text Only | Print | Product List | Glossary On
Versions: 1 2 3 4 5 6 7 8 9 10 11 12 13 14 15 16 17 18 19 20 21 22 23 24 25 26 27 28 29 30 31 32 33 34 35 36 37 38 39 40 41 42 43 44 45 46 47 48 49 50
000
ASUS42 KMHX 230722
RWRMHX
WEATHER ROUNDUP FOR EASTERN NORTH CAROLINA
NATIONAL WEATHER SERVICE NEWPORT/MOREHEAD CITY NC
300 AM EDT SAT AUG 23 2014

NOTE: "FAIR" INDICATES FEW OR NO CLOUDS BELOW 12,000 FEET
WITH NO SIGNIFICANT WEATHER AND/OR OBSTRUCTIONS TO VISIBILITY

NCZ015>017-031-032-045>047-102-103-230800-
NORTH COAST

CITY           SKY/WX    TMP DP  RH WIND       PRES   REMARKS
EDENTON        MOCLDY    73  71  96 NE3       29.94S FOG
ELIZABETH CITY CLEAR     75  72  90 NE5       29.94F
KITTY HAWK     SUNNY     76  71  87 CALM      29.92S
MANTEO         PTCLDY    75  72  88 N5        29.94R

$$

NCZ045>047-081-094-103-104-230800-
CENTRAL COAST

CITY           SKY/WX    TMP DP  RH WIND       PRES   REMARKS
FRISCO         MOCLDY    76  72  87 NE5       29.93S
SWANQUARTER      N/A     73 N/A N/A CALM      29.91S

$$

NCZ095-097-098-100-101-230800-
SOUTHERN COAST

CITY           SKY/WX    TMP DP  RH WIND       PRES   REMARKS
BEAUFORT       PTCLDY    79  74  84 N3        29.92S
CEDAR ISLAND     N/A     81 N/A N/A NE7       29.97S
JACKSONVILLE   MOCLDY    75  72  90 W5        29.93S
NEWPORT        NOT AVBL
PINEY ISLAND   PTSUNNY   82  76  81 NE6       29.92S
WILMINGTON     PTCLDY    74  73  97 CALM      29.92F


$$

NCZ011>013-027>030-043-044-078>080-089-090>093-098-230800-
COASTAL PLAIN

CITY           SKY/WX    TMP DP  RH WIND       PRES   REMARKS
AHOSKIE        MOCLDY    72  69  93 CALM      29.94F
CLINTON        NOT AVBL
ELIZABETHTOWN  PTCLDY    73  72  97 CALM      29.92S
GOLDSBORO      MOCLDY    75  74  98 CALM      29.92F
GREENVILLE     MOCLDY    73  73 100 CALM      29.95F
HAVELOCK       MOCLDY    77  74  90 W5        29.94S
KENANSVILLE    PTCLDY    71  70  96 CALM      29.94F
KINSTON        MOCLDY    75  72  89 CALM      29.94S
NEW BERN       MOCLDY    78  74  87 CALM      29.94S
RICHLANDS      MOCLDY    73  70  88 CALM      29.93F
ROANOKE RAPIDS NOT AVBL
ROCKY MOUNT    MOCLDY    74  72  93 CALM      29.94F
WASHINGTON     PTCLDY    74  72  93 CALM      29.94S
WHITEVILLE     CLEAR     74  72  93 CALM      29.91F

$$

AMZ130-135-150-152-154-156-158-170-250-252-270-ANZ085-086-088-633-658-670-230800-
MARINE OBSERVATIONS

STATION/POSITION TIME  TEMP    WIND        PRES    WAVE   SWELL
                       AIR SEA DIR/SP/G            HT/PER HT/PER
                 (UTC) (F)     (DEG/KT/KT) (MB)    (FT/S) (FT/S)
CHESAPEAKE LIGHT 0700   76      50/ 10/ 11 1014.5
BUOY 44014       0700   77 78   50/  8/  8 1013.1    2/ 7   2/ 7
DUCK             0700   77 80   30/  9/ 10 1012.8
2E DUCK          0700                        N/A     2/ 7
OREGON INLET     0700   77 82   20/  5/  7 1013.3
BUOY 44095       0700      80                N/A     2/ 7
20E OREGON INLET NOT AVBL
HATTERAS CG      0700   80 82   30/  4/  8 1013.8
DIAMOND BUOY     0700   78     340/  8/ 10 1013.1    2/ 7   2/ 7
CAPE LOOKOUT     0700   80      40/  4/  5 1013.1
BEAUFORT LAB     0700   80 84   10/  3/  4 1013.0
30 SE NEW RIVER  0700   81 83  300/ 10/ 12 1012.9    2/ 4
5 SE WRIGHTSVILL 0700   76 83   30/  6/  8   N/A
BUOY 41002       0647   82 82  250/ 16/ 17 1014.1    3/ 5   2/ 9
BUOY 41004       0700   85 85  210/ 10/ 14 1012.8

$$



USA.gov is the U.S. government's official web portal to all federal, state and local government web resources and services.